Theta_e
314 316 317 319 320 322 323 323 320 326 331 346 345 349 347 350 351 351 354 353 353 352 352 351 351 349 343 343 347 345 345 345 347 345 343 339 337 337 336 340 336 333 335
312 314 315 316 319 320 323 323 322 322 327 337 348 350 349 350 350 352 354 354 353 353 351 350 350 350 347 345 341 345 340 343 347 341 344 333 329 325 324 325 327 328 330
311 313 314 315 316 319 322 322 324 321 324 338 347 350 350 349 348 348 348 350 351 352 352 350 349 349 349 345 345 340 341 338 345 347 342 333 329 325 320 318 322 322 325
313 313 314 315 315 316 320 323 325 322 323 335 340 346 342 340 340 341 341 344 348 348 350 349 347 349 348 348 346 347 345 348 342 340 336 333 334 325 314 316 317 319 318
313 313 314 315 316 317 318 322 326 327 326 333 340 342 341 337 337 338 342 345 347 348 346 348 345 345 346 344 344 347 345 344 333 332 325 325 326 328 318 311 311 311 313
311 314 316 317 316 317 317 320 323 326 329 332 339 342 341 335 334 337 336 337 338 341 345 345 346 345 342 342 344 346 345 346 345 340 331 327 324 323 321 316 310 310 311
308 311 313 314 315 316 316 317 319 324 326 330 332 336 336 336 336 337 336 338 336 337 342 344 345 344 346 345 341 340 340 342 341 339 330 331 327 323 317 314 309 309 310
308 310 313 314 314 315 316 316 317 321 327 327 331 335 336 333 332 335 334 338 339 338 342 342 344 344 343 343 341 334 331 328 324 321 317 317 316 313 313 311 306 302 302
308 311 313 314 314 316 314 315 315 318 325 329 331 331 332 333 335 340 343 340 342 340 341 339 337 338 335 330 329 321 319 323 322 320 316 316 313 314 313 312 313 309 301
308 311 313 314 315 315 314 315 316 315 322 326 331 332 333 334 336 338 338 338 335 331 335 334 334 331 327 323 321 320 320 317 316 314 314 313 311 308 309 307 307 309 307
305 308 313 315 316 315 314 312 314 314 318 322 327 330 331 332 333 332 329 328 329 329 330 327 326 324 321 319 317 315 313 312 311 313 310 312 308 305 305 306 305 305 309
305 306 307 307 310 314 312 311 312 314 316 319 324 327 329 329 328 326 329 328 328 330 327 323 321 319 317 315 313 313 311 309 307 307 305 304 304 302 303 304 304 304 307
303 304 305 305 306 306 310 311 312 312 315 318 320 322 326 327 327 325 326 326 326 324 322 319 315 314 313 312 311 311 309 307 306 306 304 302 302 301 302 302 302 303 305
305 305 304 305 305 306 307 308 311 313 313 316 318 320 324 327 326 323 321 319 318 316 314 312 309 308 307 307 307 307 306 306 305 304 304 303 301 301 301 301 302 303 304
303 303 303 304 304 305 307 307 307 308 310 313 316 320 321 321 323 320 315 312 310 309 308 306 304 303 303 305 305 305 303 302 302 303 303 304 304 305 302 300 300 303 303
302 302 302 303 303 304 305 305 305 307 309 311 315 316 315 317 316 314 310 307 305 303 303 302 300 299 301 301 302 303 303 305 304 303 303 304 304 303 303 302 303 306 306
302 302 301 302 303 304 305 304 304 306 308 309 311 314 314 313 310 308 305 304 302 300 299 298 298 298 299 299 300 301 301 301 302 302 301 301 302 303 302 303 302 301 301
300 301 302 303 304 304 304 305 306 306 307 308 310 314 314 308 306 305 302 300 299 297 297 297 298 298 298 298 298 300 300 300 301 302 302 304 304 303 305 306 306 306 307
300 301 302 304 304 304 305 305 305 306 306 307 310 311 309 305 302 299 298 298 297 297 297 298 297 297 297 297 297 299 299 300 301 304 306 306 303 296 298 306 305 306 307
301 299 300 302 303 304 304 303 303 305 305 307 309 308 306 301 298 297 297 297 297 296 297 296 297 298 297 296 296 299 302 301 301 303 303 297 299 295 296 305 305 303 303
299 301 301 300 302 304 304 301 302 302 306 307 307 303 301 299 298 297 297 297 296 296 296 296 296 297 298 297 295 296 303 302 301 302 302 301 295 294 295 297 303 301 304
298 300 299 299 301 302 302 301 301 304 306 305 303 300 299 298 297 297 296 296 296 295 295 296 296 298 298 296 295 295 296 301 303 301 299 298 293 293 294 297 293 295 301
298 299 299 299 299 301 302 301 303 304 303 304 299 298 297 297 297 296 296 296 296 295 296 297 298 297 298 299 296 294 296 297 302 301 297 295 294 295 298 295 295 299 306
296 298 297 297 298 301 302 303 302 302 304 298 297 297 297 296 297 297 297 297 296 297 299 297 297 298 299 300 302 303 303 299 302 301 300 298 298 296 300 304 304 306 306
295 296 296 297 298 301 302 303 302 304 299 297 297 297 297 296 296 297 298 299 298 299 300 300 300 298 296 294 293 297 302 302 297 301 302 302 303 302 303 304 305 306 306
295 296 297 298 299 301 301 301 305 301 298 296 296 295 294 295 296 293 294 292 293 292 292 293 298 297 293 291 291 291 291 291 293 302 301 301 301 301 302 304 304 305 304
Wind_Speed
13 16 18 18 18 17 17 14 13 12 8 7 7 8 8 10 8 10 11 10 9 10 11 10 10 10 8 10 11 10 10 9 8 6 4 4 4 4 3 2 3 2 3
18 20 21 21 20 18 17 17 14 12 10 10 8 6 6 5 6 5 7 8 9 10 10 12 11 13 11 11 10 11 10 9 8 8 6 5 4 3 4 3 3 5 4
13 16 19 19 20 21 20 18 16 12 10 12 6 4 3 2 4 4 4 6 9 10 12 13 12 12 12 11 11 8 11 11 9 12 6 5 7 6 2 6 4 2 7
11 13 16 18 21 21 20 19 17 11 9 11 9 9 6 1 3 4 5 6 10 11 11 11 11 10 8 11 11 10 10 11 10 4 5 2 2 4 5 4 5 4 7
10 12 13 14 18 20 20 18 17 13 7 9 10 10 7 5 3 4 7 8 9 10 9 9 10 10 8 8 10 11 11 11 6 5 3 4 3 3 3 5 5 4 3
13 11 11 12 15 20 21 19 19 15 11 5 9 12 11 9 7 9 7 7 6 6 8 8 8 9 8 9 9 11 13 11 10 10 7 6 6 7 5 4 6 7 5
15 13 13 13 14 16 23 20 21 19 16 7 2 4 5 7 8 9 7 8 6 7 6 6 8 8 10 11 9 9 11 12 12 11 9 7 6 5 3 4 5 5 5
14 15 11 12 13 15 19 22 21 19 14 10 8 6 5 3 4 6 7 7 7 7 8 8 9 11 10 7 8 4 4 4 4 8 5 3 3 3 3 5 7 4 3
14 13 11 11 12 13 16 18 18 18 15 10 5 3 5 7 5 5 6 7 7 7 8 9 10 6 4 4 7 5 6 6 8 9 8 7 6 6 4 4 3 6 5
12 11 7 9 10 10 10 17 15 18 17 12 11 9 10 8 8 6 7 7 7 8 9 10 9 4 4 6 4 6 7 8 6 6 9 10 7 6 4 4 3 1 4
11 12 8 12 10 11 10 13 17 17 17 14 12 10 9 10 10 9 8 8 7 8 8 8 6 2 3 6 7 6 8 8 9 10 11 11 8 5 4 4 4 4 1
9 11 11 11 12 7 7 4 13 16 14 14 13 12 10 10 10 11 11 8 7 7 6 4 3 1 3 4 5 8 9 10 9 9 10 10 6 7 5 4 5 6 4
7 9 13 11 12 12 8 5 7 14 15 13 13 13 12 11 9 9 9 8 7 5 4 6 6 7 6 5 6 7 8 9 9 9 9 10 7 5 5 7 7 7 6
10 10 10 9 9 8 9 9 10 9 13 13 12 12 11 10 7 5 6 6 6 6 8 9 10 10 10 9 9 8 10 11 7 9 8 7 7 8 7 8 9 8 8
14 13 11 10 9 7 5 7 8 9 11 11 12 11 10 9 6 5 6 7 8 9 10 11 13 14 12 9 10 11 12 12 10 8 10 8 12 16 11 6 7 8 9
17 15 16 15 13 11 8 9 9 11 11 11 11 9 9 7 6 6 8 10 11 11 13 13 13 14 11 23 23 15 11 10 13 10 10 10 15 16 18 19 15 11 9
16 16 20 18 15 13 10 13 11 11 12 11 12 9 7 6 6 7 10 10 11 12 14 13 14 15 14 22 21 20 10 11 10 7 8 8 7 11 12 17 18 15 14
18 21 17 15 12 14 13 12 11 9 11 9 11 9 5 5 7 9 11 11 11 13 11 13 13 14 13 19 17 16 10 7 9 8 6 9 10 8 9 12 12 10 8
20 16 16 17 14 13 12 11 10 9 8 7 7 6 5 8 9 12 11 10 12 13 12 11 13 13 12 16 14 9 6 7 8 10 10 11 9 5 8 9 10 9 7
14 13 14 16 15 12 10 10 8 8 6 6 5 5 7 10 12 12 11 10 12 13 10 13 13 16 11 13 11 7 5 8 7 11 9 13 9 10 10 8 7 9 5
16 14 14 13 13 12 10 9 6 6 5 4 7 8 11 13 12 12 10 12 13 12 11 12 11 10 10 9 9 4 7 8 8 7 7 7 8 10 11 8 6 4 2
16 14 13 13 10 9 8 7 6 6 6 8 10 11 11 10 10 14 11 12 11 14 10 11 9 8 8 11 12 11 11 9 9 10 7 7 9 9 9 6 6 5 1
11 15 13 8 10 8 7 6 5 9 9 11 12 12 13 12 11 13 12 10 8 9 7 6 9 7 6 8 11 13 13 13 11 9 9 6 7 5 8 10 8 4 5
16 10 12 11 8 6 6 7 11 9 13 12 12 13 14 13 11 10 8 8 7 6 8 9 8 8 7 7 7 7 8 9 9 9 9 7 7 8 5 6 8 9 8
15 12 10 9 8 6 8 13 13 14 13 12 12 13 12 12 11 9 6 7 6 7 9 9 9 9 9 6 9 10 8 8 6 7 8 8 8 8 8 9 9 8 9
15 13 11 10 9 10 13 14 14 16 14 13 10 11 11 10 10 8 9 18 16 18 15 15 12 10 8 11 15 16 14 11 6 10 10 9 9 10 9 9 8 8 8
Wind_Direction
355 4 4 359 349 341 331 322 299 264 234 196 202 216 220 222 217 228 230 231 238 237 234 241 241 232 223 218 228 228 229 241 237 213 182 114 83 75 63 75 111 151 145
4 1 1 2 1 347 336 326 309 274 233 221 211 210 216 224 232 231 224 227 241 241 240 242 240 234 231 226 228 220 223 232 222 229 229 206 160 101 53 50 98 107 125
7 4 1 2 356 358 347 336 319 284 237 232 201 173 144 177 181 197 202 212 225 235 234 240 244 247 239 238 228 218 217 231 217 221 238 228 228 149 106 59 60 89 110
3 5 2 360 359 357 355 350 341 315 247 209 203 197 181 154 296 205 186 195 220 228 230 239 244 240 240 243 235 225 219 215 206 208 214 348 1 181 171 130 99 74 96
339 345 0 2 360 0 360 355 358 349 286 211 195 179 165 152 218 220 206 215 223 229 232 237 246 240 233 240 240 222 210 215 191 169 187 150 170 176 172 151 152 109 117
343 334 335 348 5 8 360 355 0 9 349 258 198 177 195 142 185 215 221 226 233 246 244 251 247 250 235 232 233 243 225 223 224 206 187 178 174 184 167 138 154 169 134
349 340 340 348 352 12 7 354 357 1 3 350 212 199 237 172 198 234 235 246 253 262 277 284 274 264 253 236 219 234 245 230 214 204 186 191 184 154 145 106 135 151 133
343 336 330 340 355 8 18 357 349 340 355 359 26 36 256 221 237 254 265 272 277 297 311 307 301 290 275 253 231 200 180 148 133 136 115 128 126 104 152 144 152 131 111
337 333 330 342 341 359 8 9 345 332 333 1 4 44 42 21 324 295 286 288 299 307 314 319 308 291 235 202 175 149 137 153 157 145 142 143 133 117 99 108 125 119 139
340 336 341 0 357 356 5 14 341 338 323 345 4 15 23 15 6 356 353 347 341 330 334 329 316 254 178 160 164 149 150 144 136 132 134 130 122 101 101 104 88 106 149
13 10 342 329 337 3 4 13 334 332 331 349 353 0 12 11 7 3 360 349 341 336 330 330 311 270 179 164 149 144 133 128 135 128 128 121 118 103 98 101 130 120 147
7 359 6 355 9 354 356 347 321 317 329 340 345 352 3 6 3 353 343 346 335 333 338 351 328 67 125 137 141 153 139 140 122 119 110 106 100 97 128 111 89 90 74
2 354 339 351 355 345 316 273 262 305 319 333 343 343 351 351 354 353 347 344 343 342 12 38 36 40 43 71 90 104 106 101 113 113 111 109 111 109 94 99 91 83 81
331 333 327 333 332 326 316 299 297 316 312 318 325 331 339 334 343 9 7 12 14 31 43 49 50 55 46 50 61 74 84 84 76 90 101 109 111 105 89 80 89 102 104
325 326 327 322 321 321 354 357 339 327 322 319 326 330 331 320 336 17 45 42 44 48 54 59 54 52 46 39 61 68 73 81 82 69 82 85 94 92 98 103 100 106 108
316 319 320 310 306 305 309 323 326 322 330 330 335 331 326 326 3 43 60 63 60 57 59 58 61 58 54 56 56 56 59 72 72 64 61 66 79 85 93 88 76 68 98
311 315 314 308 300 299 299 299 306 307 301 317 329 323 335 348 43 69 72 66 68 70 65 64 64 63 60 56 55 58 48 55 64 59 59 60 67 81 89 91 88 77 64
310 311 307 304 304 302 295 295 295 292 296 305 316 324 4 67 73 77 71 69 72 73 72 68 64 65 56 56 54 52 52 57 61 71 71 86 73 72 106 97 93 92 86
305 302 305 300 299 297 297 291 293 291 299 302 326 353 83 90 81 78 80 85 87 80 74 69 67 62 57 52 56 69 74 72 70 73 65 75 74 32 21 97 99 90 75
303 296 290 291 291 289 292 288 288 290 309 309 33 98 109 99 90 91 91 90 83 82 78 70 60 55 57 48 46 51 94 91 88 79 75 55 58 43 38 77 87 80 50
293 284 282 280 279 285 284 272 278 287 280 118 110 102 95 94 98 99 95 93 89 85 77 75 61 50 45 50 42 11 113 93 86 89 75 67 52 57 50 38 61 57 19
288 279 287 274 263 269 257 244 221 241 124 121 114 99 98 99 105 101 95 90 89 87 78 72 70 65 62 51 53 53 52 78 79 69 63 58 45 53 41 43 32 32 237
284 294 276 295 281 253 238 203 181 123 129 118 105 103 102 103 103 102 99 91 89 90 88 78 77 69 75 80 65 56 59 55 74 72 72 76 62 64 81 41 16 31 62
288 286 282 269 257 226 194 154 124 145 118 117 112 111 110 108 100 94 95 100 92 91 85 81 87 80 72 69 64 59 65 67 71 72 65 69 79 71 72 73 62 60 57
286 276 261 243 230 189 149 133 158 129 120 117 115 113 109 109 105 89 100 97 66 83 100 97 85 78 62 43 55 47 58 69 50 69 67 60 56 56 52 56 59 57 53
282 267 240 215 185 150 137 157 136 129 126 121 113 114 111 110 105 94 81 57 72 70 64 56 68 69 66 76 67 59 47 33 8 67 62 60 56 49 45 53 65 55 53